{"data":{"norad_id":62786,"intl_designator":"2025-016B","name":"QIANFAN-56","alt_names":[],"object_type":"PAYLOAD","status":"ACTIVE","operator":null,"country":"PRC","launch_date":"2025-01-23","launch_site_code":"TAISC","launch_vehicle":null,"mission":null,"orbit_class":"UNKNOWN","rcs_meters":null,"size_class":null,"mass_kg":null,"dimensions":null,"purposes":[],"wikipedia_slug":null,"has_3d_model":false,"image_url":null,"decayed_at":null,"tle_current":{"epoch":"2026-05-25T04:13:36.341184Z","epoch_age_seconds":55979,"freshness":"FRESH","line1":"1 62786U 25016B   26145.17611506  .00000110  00000+0  15100-3 0  9999","line2":"2 62786  88.9708  86.0531 0013757 235.4472 124.5381 13.51014126 69300","mean_motion":13.51014126,"eccentricity":0.0013757,"inclination_deg":88.9708,"raan_deg":86.0531,"arg_perigee_deg":235.4472,"mean_anomaly_deg":124.5381,"bstar":0.000151,"rev_number":6930,"period_min":106.58659834028,"perigee_km":1058.2852979622,"apogee_km":1078.7740566582,"semimajor_km":7446.6666773102,"source":"CELESTRAK","updated_at":"2026-05-25T13:38:03.250591Z"}}}